STARLINK-2615, 48678

Orbit data source: Space-Track

STARLINK-2615, 48678 is a payload satellite owned by SpaceX/Seattle (US) in LEO that was launched on Wed, 26 May 2021 UTC via an FALCON 9 launch vehicle from the Air Force Eastern Test Range (AFETR). Payload-class satellites include a variety of spacecraft equipped with specific instruments for various scientific and technological missions. These include communications satellites like Starlink; space stations such as the ISS; scientific satellites like the Hubble; Earth observation satellites from companies like Planet Labs, Umbra, and HawkEye 360; GPS; miniature CubeSats for education and research; and military/defense satellites.

Loading next visibility...
Identifier
48678, 2021-044AS
Orbit
LEO
Country
Flag of USUS
Related business
Manufacturer
SpaceX/Seattle
Mission
Operational Commercial Communications
Bus & Motor
STARLINK, Unknown motor
Mass
260 kg wet, ~248 kg dry
Launch date (UTC)
2021-05-26 (5 years ago)
Launch vehicle
FALCON 9
Launch site
Air Force Eastern Test Range (AFETR)
Object type
Payload
Rocket body
Debris
Shape & HBR
Box + 1 Pan, 10.1 m
Radar Cross Section
13.562 m², Large (>1 m²)

Expand to show TLE details & history
Last TLE update: 1 day ago

TLE from 1 day ago
0 STARLINK-2615
1 48678U 21044AS  25348.67540260  .00001651  00000-0  12974-3 0  9995
2 48678  53.0551 133.2611 0001301  79.3850 280.7285 15.06386213251036
Epoch: 2025-12-14T16:12Z
TLE epoch observation values (Epoch: 2025-12-14T16:12:34.784Z)
Latitude
-0.00007°
Longitude
166.5312°
Altitude
547.965 km
Speed
7.589 km/s
True Right ascension
08h 53m 02s
True Declination
0° 00' 00"
Sunlit
Object was in full shadow at epoch
Visualization orbit readout
Latitude
Unknown
Longitude
Unknown
Altitude
Unknown
Speed
Unknown
Apparent Right ascension
Unknown
Apparent Declination
Unknown
Sunlit
N/A
Visualization observer readout
Local Sidereal Time
15:09:07
Azimuth
Unknown
Elevation
Unknown
Doppler factor
Unknown
Orbital elements
Apogee altitude
548.425 km
Perigee altitude
546.623 km
Semi-major axis
6,925.661 km
Eccentricity
0.00013
Inclination
53.0551°
RAAN
133.2611°
Arg. of periapsis
79.385°
True anomaly
280.71385°
Mean anomaly
280.7285°
Eccentric anomaly
280.72118°
Mean motion
3.76575 °/min
Orbital period
95.6 mins
BSTAR
0.00012974
Loading maneuver chart data...
Computing Atmospheric mass density...
Loading historical data...
Loading historical data...
Loading historical data...
Loading historical data...
Loading historical data...
Loading historical data...
Loading historical data...

Documentation

Showing up to 5 results
|